• în România
  • Lista ţărilor
  • Pe 7 zile
  • Temperatura apei
  • Hartă satelitară
  • Meteo pe hartă
  • Widget-uri
  • user-avatar
    Intrare

    Meteo pe oră la Novoakbulatovo

    Astăzi, 15 August, Miercuri

    Timp Temperatura Precipitaţii Vânt Presiune Umiditate
    00:00 +14°C° 0 mm 2 m/s 748 mmHg 92%
    01:00 +13°C° 0 mm 2 m/s 748 mmHg 94%
    02:00 +13°C° 0 mm 2 m/s 748 mmHg 94%
    03:00 +13°C° 0 mm 2 m/s 748 mmHg 95%
    04:00 +12°C° 0 mm 2 m/s 748 mmHg 96%
    05:00 +12°C° 0 mm 3 m/s 749 mmHg 94%
    06:00 +13°C° 0 mm 3 m/s 749 mmHg 92%
    07:00 +14°C° 0 mm 3 m/s 749 mmHg 91%
    08:00 +15°C° 0 mm 4 m/s 749 mmHg 84%
    09:00 +18°C° 0 mm 4 m/s 750 mmHg 78%
    10:00 +19°C° 0 mm 4 m/s 750 mmHg 71%
    11:00 +20°C° 0 mm 5 m/s 750 mmHg 68%
    12:00 +21°C° 0 mm 5 m/s 750 mmHg 64%
    13:00 +22°C° 0 mm 5 m/s 750 mmHg 60%
    14:00 +22°C° 0 mm 5 m/s 750 mmHg 60%
    15:00 +22°C° 0 mm 5 m/s 750 mmHg 60%
    16:00 +22°C° 0 mm 5 m/s 750 mmHg 60%
    17:00 +21°C° 0 mm 4 m/s 751 mmHg 66%
    18:00 +20°C° 0 mm 3 m/s 751 mmHg 72%
    19:00 +19°C° 0 mm 2 m/s 751 mmHg 78%
    20:00 +18°C° 0 mm 2 m/s 751 mmHg 81%
    21:00 +17°C° 0 mm 2 m/s 752 mmHg 85%
    22:00 +15°C° 0 mm 2 m/s 752 mmHg 88%
    23:00 +15°C° 0 mm 2 m/s 752 mmHg 89%

    Mâine, 16 August, Joi

    Timp Temperatura Precipitaţii Vânt Presiune Umiditate
    00:00 +14°C° 0 mm 2 m/s 752 mmHg 90%
    01:00 +14°C° 0 mm 1 m/s 752 mmHg 91%
    02:00 +14°C° 0 mm 1 m/s 752 mmHg 91%
    03:00 +13°C° 0 mm 2 m/s 752 mmHg 92%
    04:00 +13°C° 0 mm 2 m/s 752 mmHg 92%
    05:00 +14°C° 0 mm 2 m/s 752 mmHg 89%
    06:00 +15°C° 0 mm 2 m/s 752 mmHg 87%
    07:00 +16°C° 0 mm 3 m/s 752 mmHg 84%
    08:00 +18°C° 0 mm 4 m/s 751 mmHg 78%
    09:00 +19°C° 0 mm 4 m/s 751 mmHg 73%
    10:00 +21°C° 0 mm 5 m/s 751 mmHg 67%
    11:00 +22°C° 0 mm 6 m/s 750 mmHg 65%
    12:00 +23°C° 0 mm 6 m/s 750 mmHg 62%
    13:00 +26°C° 0 mm 7 m/s 750 mmHg 60%
    14:00 +26°C° 0,3 mm 6 m/s 749 mmHg 64%
    15:00 +26°C° 0,3 mm 6 m/s 749 mmHg 68%
    16:00 +26°C° 0,3 mm 5 m/s 749 mmHg 72%
    17:00 +25°C° 1,4 mm 5 m/s 749 mmHg 76%
    18:00 +23°C° 1,4 mm 6 m/s 748 mmHg 80%
    19:00 +22°C° 1,4 mm 6 m/s 748 mmHg 84%
    20:00 +21°C° 1,4 mm 5 m/s 748 mmHg 87%
    21:00 +20°C° 1,4 mm 4 m/s 748 mmHg 90%
    22:00 +19°C° 1,4 mm 4 m/s 748 mmHg 93%
    23:00 +19°C° 0,3 mm 3 m/s 748 mmHg 94%

    Poimâine, 17 August, Vineri

    Timp Temperatura Precipitaţii Vânt Presiune Umiditate
    00:00 +18°C° 0,3 mm 3 m/s 748 mmHg 95%
    01:00 +18°C° 0,3 mm 3 m/s 748 mmHg 97%
    02:00 +18°C° 0,1 mm 3 m/s 748 mmHg 97%
    03:00 +17°C° 0,1 mm 3 m/s 748 mmHg 98%
    04:00 +17°C° 0,1 mm 3 m/s 748 mmHg 98%
    05:00 +17°C° 0 mm 3 m/s 749 mmHg 97%
    06:00 +17°C° 0 mm 3 m/s 749 mmHg 96%
    07:00 +15°C° 0 mm 4 m/s 749 mmHg 95%
    08:00 +17°C° 0 mm 4 m/s 749 mmHg 93%
    09:00 +17°C° 0 mm 4 m/s 750 mmHg 90%
    10:00 +17°C° 0 mm 3 m/s 750 mmHg 87%
    11:00 +18°C° 0 mm 3 m/s 750 mmHg 82%
    12:00 +19°C° 0 mm 3 m/s 750 mmHg 77%
    13:00 +20°C° 0 mm 3 m/s 750 mmHg 71%
    14:00 +20°C° 0 mm 3 m/s 750 mmHg 69%
    15:00 +21°C° 0 mm 3 m/s 750 mmHg 67%
    16:00 +21°C° 0 mm 3 m/s 751 mmHg 65%
    17:00 +20°C° 0,2 mm 3 m/s 751 mmHg 71%
    18:00 +19°C° 0,2 mm 2 m/s 751 mmHg 77%
    19:00 +18°C° 0,2 mm 2 m/s 751 mmHg 83%
    20:00 +16°C° 0 mm 2 m/s 751 mmHg 85%
    21:00 +15°C° 0 mm 2 m/s 751 mmHg 88%
    22:00 +14°C° 0 mm 2 m/s 751 mmHg 90%
    23:00 +14°C° 0 mm 2 m/s 752 mmHg 91%

    18 August, Sâmbătă

    Timp Temperatura Precipitaţii Vânt Presiune Umiditate
    00:00 +13°C° 0 mm 2 m/s 752 mmHg 91%
    01:00 +13°C° 0 mm 2 m/s 752 mmHg 92%
    02:00 +12°C° 0 mm 2 m/s 752 mmHg 92%
    03:00 +12°C° 0 mm 2 m/s 752 mmHg 92%
    04:00 +10°C° 0 mm 2 m/s 753 mmHg 92%
    05:00 +11°C° 0 mm 3 m/s 753 mmHg 90%
    06:00 +11°C° 0 mm 3 m/s 753 mmHg 88%
    07:00 +12°C° 0 mm 3 m/s 753 mmHg 85%
    08:00 +13°C° 0 mm 4 m/s 753 mmHg 80%
    09:00 +15°C° 0 mm 4 m/s 753 mmHg 74%
    10:00 +17°C° 0 mm 4 m/s 753 mmHg 68%
    11:00 +17°C° 0 mm 4 m/s 753 mmHg 66%
    12:00 +17°C° 0 mm 5 m/s 753 mmHg 63%
    13:00 +17°C° 0 mm 5 m/s 753 mmHg 60%
    14:00 +17°C° 0 mm 5 m/s 753 mmHg 60%
    15:00 +17°C° 0 mm 5 m/s 753 mmHg 61%
    16:00 +17°C° 0 mm 5 m/s 753 mmHg 61%
    17:00 +16°C° 0 mm 5 m/s 753 mmHg 65%
    18:00 +15°C° 0 mm 4 m/s 753 mmHg 69%
    19:00 +14°C° 0 mm 4 m/s 753 mmHg 74%
    20:00 +13°C° 0 mm 4 m/s 754 mmHg 75%
    21:00 +12°C° 0 mm 4 m/s 754 mmHg 77%
    22:00 +10°C° 0 mm 3 m/s 754 mmHg 79%
    23:00 +10°C° 0 mm 3 m/s 754 mmHg 83%

    19 August, Duminică

    Timp Temperatura Precipitaţii Vânt Presiune Umiditate
    00:00 +10°C° 0 mm 3 m/s 754 mmHg 86%
    01:00 +8°C° 0 mm 4 m/s 754 mmHg 89%
    02:00 +8°C° 0 mm 4 m/s 755 mmHg 90%
    03:00 +8°C° 0 mm 4 m/s 755 mmHg 92%
    04:00 +8°C° 0 mm 4 m/s 755 mmHg 94%
    05:00 +10°C° 0 mm 4 m/s 755 mmHg 90%
    06:00 +10°C° 0 mm 4 m/s 755 mmHg 87%
    07:00 +11°C° 0 mm 4 m/s 755 mmHg 83%
    08:00 +13°C° 0 mm 4 m/s 755 mmHg 76%
    09:00 +14°C° 0 mm 4 m/s 755 mmHg 70%
    10:00 +17°C° 0 mm 4 m/s 755 mmHg 63%
    11:00 +18°C° 0 mm 4 m/s 755 mmHg 60%
    12:00 +18°C° 0 mm 4 m/s 755 mmHg 57%
    13:00 +19°C° 0 mm 4 m/s 755 mmHg 53%
    14:00 +19°C° 0 mm 4 m/s 755 mmHg 54%
    15:00 +19°C° 0 mm 4 m/s 755 mmHg 54%
    16:00 +19°C° 0 mm 4 m/s 755 mmHg 55%
    17:00 +18°C° 0 mm 4 m/s 754 mmHg 61%
    18:00 +16°C° 0 mm 3 m/s 754 mmHg 67%
    19:00 +15°C° 0 mm 2 m/s 754 mmHg 74%
    20:00 +14°C° 0 mm 2 m/s 754 mmHg 76%
    21:00 +13°C° 0 mm 2 m/s 755 mmHg 79%
    22:00 +10°C° 0 mm 2 m/s 755 mmHg 82%
    23:00 +10°C° 0 mm 2 m/s 755 mmHg 83%

    20 August, Luni

    Timp Temperatura Precipitaţii Vânt Presiune Umiditate
    00:00 +9°C° 0 mm 2 m/s 755 mmHg 84%
    01:00 +9°C° 0 mm 2 m/s 755 mmHg 85%
    02:00 +9°C° 0 mm 2 m/s 755 mmHg 86%
    03:00 +8°C° 0 mm 2 m/s 755 mmHg 87%
    04:00 +8°C° 0 mm 2 m/s 755 mmHg 88%
    05:00 +9°C° 0 mm 2 m/s 755 mmHg 85%
    06:00 +10°C° 0 mm 2 m/s 755 mmHg 82%
    07:00 +12°C° 0 mm 2 m/s 755 mmHg 80%
    08:00 +13°C° 0 mm 2 m/s 755 mmHg 73%
    09:00 +15°C° 0 mm 2 m/s 754 mmHg 67%
    10:00 +17°C° 0 mm 2 m/s 754 mmHg 61%
    11:00 +18°C° 0 mm 2 m/s 754 mmHg 58%
    12:00 +19°C° 0 mm 3 m/s 754 mmHg 55%
    13:00 +20°C° 0 mm 3 m/s 753 mmHg 52%
    14:00 +20°C° 0 mm 3 m/s 753 mmHg 52%
    15:00 +21°C° 0 mm 3 m/s 753 mmHg 52%
    16:00 +21°C° 0 mm 3 m/s 753 mmHg 53%
    17:00 +20°C° 0 mm 2 m/s 753 mmHg 59%
    18:00 +18°C° 0 mm 2 m/s 753 mmHg 65%
    19:00 +18°C° 0 mm 1 m/s 753 mmHg 72%
    20:00 +16°C° 0 mm 1 m/s 753 mmHg 74%
    21:00 +15°C° 0 mm 1 m/s 753 mmHg 76%
    22:00 +13°C° 0 mm 1 m/s 753 mmHg 79%
    23:00 +13°C° 0 mm 1 m/s 753 mmHg 80%
    Arată mai mult